Location: Unspecified
(34.4950°S, 58.5160°W)
Time: 16:02:39
(UTC+00:00)

Cosmos 1655 Rocket - Pass Details

Date: 06 July 2022
Orbit: 971 x 1005 km, 83.0° (Epoch: 11 August)

Event Time Altitude Azimuth Distance (km) Brightness Sun altitude
Rises 10:23:37 0° 190° (S) 3,740 6.7 -7.8°
Reaches altitude 10° 10:26:10 10° 191° (SSW) 2,779 6.1 -7.3°
Maximum altitude 10:32:30 70° 273° (W) 1,054 4.1 -6.1°
Drops below altitude 10° 10:38:42 10° 355° (N) 2,724 6.6 -5.0°
Sets 10:41:12 0° 357° (N) 3,660 7.3 -4.5°
